(246840) = 2010 DW45

Discovered at Kitt Peak on 2010-02-17 by Spacewatch.

Orbit

Orbit type: Main Belt

Note: WebGL enabled browser required.

epoch2023-09-13.0
epoch JD2460200.5
perihelion date2017-09-19.83223
perihelion JD2458016.33223
argument of perihelion (°)54.98637
ascending node (°)184.84723
inclination (°)9.43776
eccentricity0.0348406
perihelion distance (AU)3.3388602
Tisserand w.r.t. Jupiter3.1
ΔV w.r.t. Earth (km/sec)11.5
semimajor axis (AU)3.4593872
mean anomaly (°)334.57314
mean daily motion (°/day)0.15318110
aphelion distance (AU)3.580
period (years)6.43
P-vector [x]-0.50344968
P-vector [y]-0.83651350
P-vector [z]-0.21629513
Q-vector [x]0.86391344
Q-vector [y]-0.49137134
Q-vector [z]-0.11048878
absolute magnitude15.87
phase slope0.15
uncertainty0
referenceMPO 778755
observations used220
oppositions14
arc length (days)7396
first opposition used2003
last opposition used2023
residual rms (arc-secs)0.74
perturbers coarse indicatorM-v
perturbers precise indicator003Ek
first observation date used2003-01-16.0
last observation date used2023-04-17.0
computer nameMPCLINUX
JD of orbit computation2456612.575399
perihelion JD uncertainty (days)1.1106E-03
argument of perihelion uncertainty (°)1.7211E-04
ascending node uncertainty (°)3.8564E-05
inclination uncertainty (°)1.4402E-05
eccentricity uncertainty 9.3302E-08
perihelion distance uncertainty (AU)3.1541E-07
Minimum Orbit Intersection Distances (in AU)
for orbit epoch: 2460200.5, reference: E2023-T87
Mercury2.88374
Venus2.61985
Earth2.33876
Mars1.74055
Jupiter1.40438
Saturn5.53852
Uranus15.029
Neptune26.2773

Observations

227 total observations over interval: 2003 01 16.45524 – 2023 04 17.322176
These data are available for download (format description).

Date (UT) J2000 RA J2000 Dec Magn Location Ref
2003 01 16.45524 09 14 43.77 +05 23 28.6 20.9 R 644 – Palomar Mountain/NEAT MPS 332244
2003 01 26.50045 09 08 16.79 +05 55 09.0 20.3 R 644 – Palomar Mountain/NEAT MPS 332244
2003 01 26.50835 09 08 16.45 +05 55 11.5 20.4 R 644 – Palomar Mountain/NEAT MPS 332244
2003 01 26.52111 09 08 15.96 +05 55 14.4   644 – Palomar Mountain/NEAT MPS 332244
2003 01 29.37483 09 06 17.92 +06 06 08.0 20.2 R 644 – Palomar Mountain/NEAT MPS 332244
2003 01 29.38574 09 06 17.47 +06 06 10.9 20.2 R 644 – Palomar Mountain/NEAT MPS 332244
2003 01 29.39644 09 06 17.02 +06 06 13.4 20.3 R 644 – Palomar Mountain/NEAT MPS 332244
2003 02 19.17881 08 52 00.14 +07 42 14.2   644 – Palomar Mountain/NEAT MPS 332244
2004 04 14.26712 13 31 07.43 -04 55 35.9 20.3 V 691 – Steward Observatory, Kitt Peak-Spacewatch MPS 332244
2004 04 14.29932 13 31 06.13 -04 55 23.8 20.5 V 691 – Steward Observatory, Kitt Peak-Spacewatch MPS 332244
2004 04 14.33609 13 31 04.66 -04 55 10.2 20.5 V 691 – Steward Observatory, Kitt Peak-Spacewatch MPS 332244
2006 08 29.31789 23 13 17.36 -00 08 42.2 20.8 V 691 – Steward Observatory, Kitt Peak-Spacewatch MPS 339071
2006 08 29.33513 23 13 16.72 -00 08 48.1 20.8 V 691 – Steward Observatory, Kitt Peak-Spacewatch MPS 339071
2006 08 29.35244 23 13 16.10 -00 08 54.0 20.8 V 691 – Steward Observatory, Kitt Peak-Spacewatch MPS 339071
2007 10 12.45409 03 33 00.10 +11 00 46.3 20.3 V G96 – Mt. Lemmon Survey MPS 339071
2007 10 12.45947 03 33 00.00 +11 00 44.8 20.1 V G96 – Mt. Lemmon Survey MPS 339071
2007 10 12.46492 03 32 59.82 +11 00 43.0 20.3 V G96 – Mt. Lemmon Survey MPS 339071
2007 10 12.47032 03 32 59.67 +11 00 41.7 20.4 V G96 – Mt. Lemmon Survey MPS 339071
2007 11 17.31083 03 10 48.32 +08 19 12.2 18.9 V G96 – Mt. Lemmon Survey MPS 339071
2007 11 17.31836 03 10 47.89 +08 19 07.9 20.4 V G96 – Mt. Lemmon Survey MPS 339071
2007 11 17.32573 03 10 47.60 +08 19 06.1 19.9 V G96 – Mt. Lemmon Survey MPS 339071
2007 11 17.33318 03 10 47.24 +08 19 04.6 20.1 V G96 – Mt. Lemmon Survey MPS 339071
2010 02 17.38823 11 48 02.16 -02 20 49.6 21.1 V 691 – Steward Observatory, Kitt Peak-Spacewatch MPS 313989
2010 02 17.40329 11 48 01.78 -02 20 45.7 21.3 V 691 – Steward Observatory, Kitt Peak-Spacewatch MPS 313989
2010 02 17.41836 11 48 01.29 -02 20 41.2 21.8 V 691 – Steward Observatory, Kitt Peak-Spacewatch MPS 313989
2010 02 19.39344 11 47 06.42 -02 11 38.6   691 – Steward Observatory, Kitt Peak-Spacewatch MPS 313989
2010 02 19.41108 11 47 05.93 -02 11 33.5   691 – Steward Observatory, Kitt Peak-Spacewatch MPS 313989
2010 02 19.42873 11 47 05.33 -02 11 29.2   691 – Steward Observatory, Kitt Peak-Spacewatch MPS 313989
2010 03 12.32781 11 34 56.28 -00 12 09.6 20.2 V 703 – Catalina Sky Survey MPS 318074
2010 03 12.33537 11 34 55.92 -00 12 07.1 20.2 V 703 – Catalina Sky Survey MPS 318074
2010 03 12.34303 11 34 55.56 -00 12 04.7 20.0 V 703 – Catalina Sky Survey MPS 318074
2010 03 12.35075 11 34 55.38 -00 12 00.5 19.8 V 703 – Catalina Sky Survey MPS 318074
2010 03 13.20533 11 34 22.46 -00 06 31.0 20.1 V 691 – Steward Observatory, Kitt Peak-Spacewatch MPS 318074
2010 03 13.22294 11 34 21.76 -00 06 24.4 20.2 V 691 – Steward Observatory, Kitt Peak-Spacewatch MPS 318074
2010 03 13.24055 11 34 21.07 -00 06 17.4 20.3 V 691 – Steward Observatory, Kitt Peak-Spacewatch MPS 318074
2010 03 13.31454 11 34 18.12 -00 05 49.3 20.1 V G96 – Mt. Lemmon Survey MPS 318074
2010 03 13.32481 11 34 17.72 -00 05 45.2 20.3 V G96 – Mt. Lemmon Survey MPS 318074
2010 03 13.33515 11 34 17.29 -00 05 41.1 20.1 V G96 – Mt. Lemmon Survey MPS 318074
2010 06 04.651097 11 21 16.79 +04 30 16.8   C51 – WISE MPS 330903
2010 06 04.783400 11 21 20.94 +04 30 04.8   C51 – WISE MPS 330903
2010 06 04.915705 11 21 24.90 +04 29 51.7   C51 – WISE MPS 330903
2010 06 05.048008 11 21 29.16 +04 29 39.4   C51 – WISE MPS 330903
2010 06 05.180313 11 21 33.28 +04 29 27.3   C51 – WISE MPS 330903
2010 06 05.246402 11 21 35.36 +04 29 20.8   C51 – WISE MPS 330903
2010 06 05.312617 11 21 37.39 +04 29 14.7   C51 – WISE MPS 330903
2010 06 05.378705 11 21 39.56 +04 29 09.3   C51 – WISE MPS 330903
2010 06 05.444920 11 21 41.58 +04 29 00.4   C51 – WISE MPS 330903
2010 06 05.511009 11 21 43.66 +04 28 56.1   C51 – WISE MPS 330903
2010 06 05.643313 11 21 47.89 +04 28 42.6   C51 – WISE MPS 330903
2010 06 05.775616 11 21 52.11 +04 28 29.1   C51 – WISE MPS 330903
2010 06 05.907920 11 21 56.31 +04 28 15.4   C51 – WISE MPS 330903
2011 06 09.30355 16 11 27.74 -08 59 46.8 20.3 V G96 – Mt. Lemmon Survey MPS 385316
2011 06 09.31157 16 11 27.45 -08 59 45.6 20.8 V G96 – Mt. Lemmon Survey MPS 385316
2011 06 09.31961 16 11 27.06 -08 59 45.3 20.6 V G96 – Mt. Lemmon Survey MPS 385316
2011 06 09.32763 16 11 26.80 -08 59 43.0 19.1 V G96 – Mt. Lemmon Survey MPS 385316
2011 06 28.18234 16 01 03.03 -08 43 52.3 20.9 V G96 – Mt. Lemmon Survey MPS 386259
2011 06 28.19032 16 01 02.85 -08 43 52.1 20.2 V G96 – Mt. Lemmon Survey MPS 386259
2011 06 28.19844 16 01 02.64 -08 43 52.3 21.1 V G96 – Mt. Lemmon Survey MPS 386259
2011 06 28.20654 16 01 02.42 -08 43 52.4 21.0 V G96 – Mt. Lemmon Survey MPS 386259
2013 10 03.42654 01 38 15.656 +06 21 18.86 21.2 w F51 – Pan-STARRS 1, Haleakala MPS 479795
2013 10 03.44166 01 38 15.084 +06 21 13.66 21.2 w F51 – Pan-STARRS 1, Haleakala MPS 479795
2013 10 03.45686 01 38 14.524 +06 21 08.33 21.3 w F51 – Pan-STARRS 1, Haleakala MPS 479795
2013 10 12.39849 01 32 36.35 +05 28 18.6 20.2 V G96 – Mt. Lemmon Survey MPS 481994
2013 10 12.40557 01 32 36.07 +05 28 16.0 20.4 V G96 – Mt. Lemmon Survey MPS 481994
2013 10 12.41259 01 32 35.79 +05 28 13.6 20.1 V G96 – Mt. Lemmon Survey MPS 481994
2013 10 12.41962 01 32 35.49 +05 28 11.3 20.3 V G96 – Mt. Lemmon Survey MPS 481994
2013 10 23.23735 01 25 33.38 +04 25 32.3 21.0 V G96 – Mt. Lemmon Survey MPS 483395
2013 10 23.24321 01 25 33.20 +04 25 30.5 20.6 V G96 – Mt. Lemmon Survey MPS 483395
2013 10 23.24910 01 25 32.91 +04 25 29.0 21.1 V G96 – Mt. Lemmon Survey MPS 483395
2013 10 23.25497 01 25 32.70 +04 25 26.7 21.0 V G96 – Mt. Lemmon Survey MPS 483395
2013 10 27.33752 01 22 58.603 +04 03 15.51 20.8 w F51 – Pan-STARRS 1, Haleakala MPS 484986
2013 10 27.34883 01 22 58.175 +04 03 11.90 20.9 w F51 – Pan-STARRS 1, Haleakala MPS 484986
2013 10 27.35299 01 22 58.005 +04 03 10.52 20.8 w F51 – Pan-STARRS 1, Haleakala MPS 484986
2013 10 27.36441 01 22 57.579 +04 03 07.06 20.8 w F51 – Pan-STARRS 1, Haleakala MPS 484986
2013 10 27.36859 01 22 57.412 +04 03 05.74 20.8 w F51 – Pan-STARRS 1, Haleakala MPS 484986
2013 10 27.38003 01 22 56.986 +04 03 02.07 20.7 w F51 – Pan-STARRS 1, Haleakala MPS 484986
2013 10 27.38419 01 22 56.817 +04 03 00.77 20.8 w F51 – Pan-STARRS 1, Haleakala MPS 484986
2014 11 26.39938 05 47 37.846 +11 06 17.32 21.0 w F51 – Pan-STARRS 1, Haleakala MPS 551123
2014 11 26.41242 05 47 37.342 +11 06 15.53 21.1 w F51 – Pan-STARRS 1, Haleakala MPS 551123
2014 11 26.42538 05 47 36.841 +11 06 13.92 20.9 w F51 – Pan-STARRS 1, Haleakala MPS 551123
2014 11 26.43835 05 47 36.331 +11 06 12.26 21.0 w F51 – Pan-STARRS 1, Haleakala MPS 551123
2014 11 28.53638 05 46 15.181 +11 01 39.43 20.8 w F51 – Pan-STARRS 1, Haleakala MPS 551123
2014 11 28.55059 05 46 14.596 +11 01 37.66 20.9 w F51 – Pan-STARRS 1, Haleakala MPS 551123
2014 11 28.56475 05 46 14.026 +11 01 35.85 20.8 w F51 – Pan-STARRS 1, Haleakala MPS 551123
2014 11 28.57893 05 46 13.450 +11 01 33.93 20.9 w F51 – Pan-STARRS 1, Haleakala MPS 551123
2015 01 17.25852 05 12 47.172 +10 49 25.03 21.4 w F51 – Pan-STARRS 1, Haleakala MPS 566599
2015 01 17.27167 05 12 46.817 +10 49 26.42 21.3 w F51 – Pan-STARRS 1, Haleakala MPS 566599
2015 01 17.28475 05 12 46.468 +10 49 27.86 21.3 w F51 – Pan-STARRS 1, Haleakala MPS 566599
2015 01 19.39074 05 11 54.346 +10 53 07.61 21.4 w F51 – Pan-STARRS 1, Haleakala MPS 566599
2015 01 19.40378 05 11 54.027 +10 53 09.05 21.4 w F51 – Pan-STARRS 1, Haleakala MPS 566599
2015 01 19.41688 05 11 53.700 +10 53 10.43 21.5 w F51 – Pan-STARRS 1, Haleakala MPS 566599
2015 12 09.60979 10 04 34.576 +03 15 53.82 22.2 w F51 – Pan-STARRS 1, Haleakala MPS 659214
2015 12 09.62856 10 04 34.842 +03 15 50.39 22.1 w F51 – Pan-STARRS 1, Haleakala MPS 659214
2015 12 09.63799 10 04 35.004 +03 15 49.06 21.9 w F51 – Pan-STARRS 1, Haleakala MPS 659214
